SV1BYK-2 Weather Reports


time (UTC)temp
C
wind
direction
speed
KPH
gust
KPH
rain 1hr
cm
rain 24hr
cm
rain mn
cm
humidity
%
barometer
mb
20260507061116 21 91 3.2 3.2 0.00 0.00 0.00 49 1011.5
20260507060213 21 359 0.0 3.2 0.00 0.00 0.00 51 1011.5
20260507055403 21 315 0.0 3.2 0.00 0.00 0.00 50 1011.1
20260507054717 21 315 0.0 3.2 0.00 0.00 0.00 52 1011.2
20260507053815 20 315 1.6 3.2 0.00 0.00 0.00 53 1011.2
20260507052917 19 292 0.0 3.2 0.00 0.00 0.00 52 1010.9
20260507051803 18 292 1.6 3.2 0.00 0.00 0.00 53 1010.9
20260507051117 18 308 0.0 3.2 0.00 0.00 0.00 55 1010.8
20260507050214 17 320 1.6 3.2 0.00 0.00 0.00 56 1010.8
20260507045403 17 323 1.6 6.4 0.00 0.00 0.00 57 1010.8
20260507044503 16 319 0.0 3.2 0.00 0.00 0.00 57 1010.8
20260507043604 16 315 1.6 3.2 0.00 0.00 0.00 58 1010.8
20260507042704 16 315 0.0 3.2 0.00 0.00 0.00 60 1010.7
20260507041803 16 315 0.0 3.2 0.00 0.00 0.00 60 1010.7
20260507040903 15 318 0.0 3.2 0.00 0.00 0.00 61 1010.8
20260507040215 15 321 1.6 3.2 0.00 0.00 0.00 61 1010.8
20260507035616 15 327 0.0 3.2 0.00 0.00 0.00 61 1010.8
20260507034503 15 315 0.0 3.2 0.00 0.00 0.00 61 1011.0
20260507033604 15 315 1.6 3.2 0.00 0.00 0.00 60 1010.7
20260507032913 15 315 0.0 3.2 0.00 0.00 0.00 60 1010.6
20260507032016 15 315 0.0 3.2 0.00 0.00 0.00 60 1010.7
20260507031113 15 325 1.6 3.2 0.00 0.00 0.00 60 1010.9
20260507030004 15 337 0.0 3.2 0.00 0.00 0.00 61 1010.5
20260507025617 15 337 0.0 3.2 0.00 0.00 0.00 60 1010.6
20260507024503 15 337 0.0 3.2 0.00 0.00 0.00 60 1010.7
20260507023604 15 337 0.0 3.2 0.00 0.00 0.00 60 1010.4
20260507022914 15 0 0.0 0.0 0.00 0.00 0.00 60 1010.7
20260507022016 15 337 0.0 3.2 0.00 0.00 0.00 59 1010.5
20260507020903 15 0 0.0 0.0 0.00 0.00 0.00 59 1010.6
20260507020004 15 337 0.0 3.2 0.00 0.00 0.00 59 1010.2
20260507015618 15 337 0.0 3.2 0.00 0.00 0.00 59 1010.3
20260507014715 16 332 0.0 3.2 0.00 0.00 0.00 58 1010.2
20260507013817 16 315 1.6 3.2 0.00 0.00 0.00 57 1010.3
20260507012704 16 315 0.0 3.2 0.00 0.00 0.00 57 1010.0
20260507011803 16 315 0.0 3.2 0.00 0.00 0.00 57 1010.1
20260507010004 16 315 0.0 3.2 0.00 0.00 0.00 56 1009.8
20260507005403 16 315 0.0 3.2 0.00 0.00 0.00 56 1009.8
20260507004503 16 315 0.0 3.2 0.00 0.00 0.00 55 1009.9
20260507003818 16 310 1.6 6.4 0.00 0.00 0.00 55 1009.6
20260507002915 17 292 1.6 9.7 0.00 0.00 0.00 55 1009.7
20260507002018 16 292 1.6 9.7 0.00 0.00 0.00 55 1009.8
20260507000903 16 292 0.0 3.2 0.00 0.00 0.00 56 1009.9
20260507000004 16 292 0.0 3.2 0.00 0.00 0.00 57 1010.0
20260506235403 16 292 0.0 3.2 0.00 0.00 0.00 57 1009.6
20260506234716 16 0 0.0 0.0 0.00 0.00 0.00 56 1009.9
20260506233604 17 292 0.0 3.2 0.00 0.00 0.00 55 1010.3
20260506232916 17 0 0.0 0.0 0.00 0.00 0.00 56 1010.3
20260506231803 17 292 0.0 3.2 0.00 0.00 0.00 55 1010.5
20260506230903 17 292 0.0 3.2 0.00 0.00 0.00 55 1010.5
20260506230213 17 292 0.0 3.2 0.00 0.00 0.00 55 1010.2
20260506225614 17 292 0.0 3.2 0.00 0.00 0.00 54 1010.5
20260506224717 17 292 0.0 3.2 0.00 0.00 0.00 54 1010.6
20260506223814 17 292 1.6 3.2 0.00 0.00 0.00 54 1010.7
20260506222704 18 0 0.0 0.0 0.00 0.00 0.00 54 1010.4
20260506222014 18 292 0.0 3.2 0.00 0.00 0.00 53 1010.5
20260506221116 18 292 1.6 3.2 0.00 0.00 0.00 52 1010.6
20260506220213 18 292 1.6 3.2 0.00 0.00 0.00 54 1010.5
20260506215403 18 0 0.0 0.0 0.00 0.00 0.00 54 1010.7
20260506214504 18 0 0.0 0.0 0.00 0.00 0.00 53 1010.7
20260506213604 18 0 0.0 0.0 0.00 0.00 0.00 52 1010.8
20260506212703 18 292 0.0 3.2 0.00 0.00 0.00 52 1010.8
20260506211803 19 292 0.0 3.2 0.00 0.00 0.00 51 1010.7
20260506211117 18 292 0.0 3.2 0.00 0.00 0.00 51 1010.8
20260506210219 18 0 0.0 0.0 0.00 0.00 0.00 51 1010.8
20260506205403 18 292 0.0 3.2 0.00 0.00 0.00 50 1011.0
20260506204504 19 292 0.0 3.2 0.00 0.00 0.00 50 1011.0
20260506203604 19 286 1.6 6.4 0.00 0.00 0.00 49 1010.9
20260506202918 19 285 3.2 6.4 0.00 0.00 0.00 49 1011.1
20260506201804 19 262 3.2 6.4 0.00 0.00 0.00 48 1010.9
20260506200903 20 264 3.2 6.4 0.00 0.00 0.00 47 1011.0
20260506200004 20 282 3.2 6.4 0.00 0.00 0.00 45 1011.0
20260506195616 20 283 4.8 6.4 0.00 0.00 0.00 45 1010.7
20260506194504 20 270 6.4 9.7 0.00 0.00 0.00 43 1010.6
20260506193603 20 267 3.2 6.4 0.00 0.00 0.00 42 1010.5
20260506192703 20 277 4.8 6.4 0.00 0.00 0.00 42 1010.5
20260506191803 21 283 4.8 6.4 0.00 0.00 0.00 42 1010.5
20260506191113 21 272 4.8 6.4 0.00 0.00 0.00 42 1010.2
20260506190004 21 292 3.2 6.4 0.00 0.00 0.00 42 1010.2
20260506185617 21 292 3.2 6.4 0.00 0.00 0.00 42 1010.1
20260506184714 21 292 3.2 6.4 0.00 0.00 0.00 42 1010.2
20260506183604 21 292 3.2 6.4 0.00 0.00 0.00 42 1009.9
20260506182703 21 290 4.8 6.4 0.00 0.00 0.00 42 1009.8
20260506182016 21 280 3.2 6.4 0.00 0.00 0.00 42 1009.8
20260506181114 21 274 3.2 6.4 0.00 0.00 0.00 41 1009.8
20260506180216 21 275 3.2 9.7 0.00 0.00 0.00 42 1009.8
20260506175403 21 268 6.4 6.4 0.00 0.00 0.00 42 1009.5
20260506174504 21 258 3.2 9.7 0.00 0.00 0.00 42 1009.7
20260506173603 21 269 3.2 6.4 0.00 0.00 0.00 42 1009.6
20260506172915 21 272 3.2 9.7 0.00 0.00 0.00 43 1009.7
20260506171803 21 261 4.8 6.4 0.00 0.00 0.00 42 1009.2
20260506171114 21 255 6.4 9.7 0.00 0.00 0.00 42 1009.4
20260506170004 21 266 6.4 11.3 0.00 0.00 0.00 42 1009.5
20260506165613 21 250 8.0 11.3 0.00 0.00 0.00 41 1009.3
20260506164504 22 264 4.8 11.3 0.00 0.00 0.00 41 1009.7
20260506163813 22 260 3.2 12.9 0.00 0.00 0.00 39 1009.3
20260506162703 22 269 3.2 12.9 0.00 0.00 0.00 40 1009.5
20260506162018 22 272 6.4 12.9 0.00 0.00 0.00 38 1009.3
20260506160903 23 254 6.4 14.5 0.00 0.00 0.00 37 1009.4
20260506160003 23 240 3.2 14.5 0.00 0.00 0.00 35 1009.2
20260506155403 24 232 3.2 12.9 0.00 0.00 0.00 34 1009.3
20260506154716 23 227 4.8 14.5 0.00 0.00 0.00 35 1009.2
20260506153813 23 230 3.2 14.5 0.00 0.00 0.00 34 1009.3
20260506152703 23 251 3.2 17.7 0.00 0.00 0.00 34 1009.6
20260506151803 23 210 3.2 12.9 0.00 0.00 0.00 34 1009.5
20260506151115 24 139 4.8 14.5 0.00 0.00 0.00 34 1009.7
20260506150213 24 247 6.4 14.5 0.00 0.00 0.00 35 1009.6
20260506145403 24 253 3.2 17.7 0.00 0.00 0.00 34 1009.7
20260506144504 24 217 8.0 14.5 0.00 0.00 0.00 35 1009.6
20260506143814 24 213 6.4 14.5 0.00 0.00 0.00 35 1009.7
20260506142703 23 217 6.4 20.9 0.00 0.00 0.00 36 1009.5
20260506142014 23 215 12.9 20.9 0.00 0.00 0.00 38 1009.6
20260506141116 24 262 3.2 14.5 0.00 0.00 0.00 38 1009.6
20260506140213 24 205 3.2 17.7 0.00 0.00 0.00 38 1009.8
20260506135403 23 251 4.8 17.7 0.00 0.00 0.00 41 1009.9
20260506134504 23 215 4.8 14.5 0.00 0.00 0.00 43 1009.9
20260506133815 23 251 6.4 20.9 0.00 0.00 0.00 44 1010.0
20260506132703 23 237 8.0 14.5 0.00 0.00 0.00 44 1009.8
20260506131804 23 235 4.8 17.7 0.00 0.00 0.00 43 1009.8
20260506131117 23 232 6.4 14.5 0.00 0.00 0.00 44 1009.9
20260506130214 23 186 4.8 17.7 0.00 0.00 0.00 42 1009.9
20260506125403 23 213 6.4 17.7 0.00 0.00 0.00 40 1009.6
20260506124504 25 122 4.8 17.7 0.00 0.00 0.00 39 1009.8
20260506123815 25 237 4.8 17.7 0.00 0.00 0.00 38 1009.7
20260506122918 24 221 6.4 17.7 0.00 0.00 0.00 41 1009.8
20260506122015 23 239 6.4 17.7 0.00 0.00 0.00 42 1010.0
20260506120903 23 243 4.8 17.7 0.00 0.00 0.00 43 1010.0
20260506120004 23 217 6.4 17.7 0.00 0.00 0.00 44 1010.2
20260506115403 23 211 6.4 17.7 0.00 0.00 0.00 43 1010.2
20260506114714 23 186 6.4 14.5 0.00 0.00 0.00 43 1009.9
20260506113816 23 105 6.4 14.5 0.00 0.00 0.00 44 1010.1
20260506112913 23 133 3.2 17.7 0.00 0.00 0.00 49 1010.4
20260506111803 23 210 6.4 17.7 0.00 0.00 0.00 46 1010.2
20260506111113 23 126 6.4 17.7 0.00 0.00 0.00 42 1010.0
20260506110215 23 110 6.4 17.7 0.00 0.00 0.00 39 1010.1
20260506105404 24 98 8.0 14.5 0.00 0.00 0.00 38 1010.0
20260506104504 25 224 6.4 14.5 0.00 0.00 0.00 37 1010.1
20260506103817 24 224 6.4 17.7 0.00 0.00 0.00 39 1010.2
20260506102914 24 121 6.4 12.9 0.00 0.00 0.00 38 1010.2
20260506101803 25 117 4.8 12.9 0.00 0.00 0.00 37 1010.2
20260506100903 24 113 6.4 12.9 0.00 0.00 0.00 38 1010.3
20260506100004 24 153 3.2 14.5 0.00 0.00 0.00 39 1010.3
20260506095618 24 156 3.2 14.5 0.00 0.00 0.00 39 1010.3
20260506094715 23 224 3.2 14.5 0.00 0.00 0.00 42 1010.3
20260506093603 24 110 3.2 12.9 0.00 0.00 0.00 42 1010.6
20260506092915 24 225 3.2 9.7 0.00 0.00 0.00 42 1010.6
20260506091803 24 105 3.2 11.3 0.00 0.00 0.00 43 1010.4
20260506091114 24 107 4.8 12.9 0.00 0.00 0.00 41 1010.3
20260506090217 24 142 3.2 12.9 0.00 0.00 0.00 42 1010.3
20260506085613 24 105 6.4 11.3 0.00 0.00 0.00 42 1010.2
20260506084504 24 234 3.2 9.7 0.00 0.00 0.00 41 1010.2
20260506083813 23 101 3.2 6.4 0.00 0.00 0.00 41 1010.2
20260506082916 24 104 3.2 11.3 0.00 0.00 0.00 38 1010.4
20260506081803 24 94 4.8 11.3 0.00 0.00 0.00 38 1010.2
20260506080903 24 98 4.8 9.7 0.00 0.00 0.00 38 1010.4
20260506080217 23 72 3.2 12.9 0.00 0.00 0.00 39 1010.2
20260506072703 23 239 0.0 6.4 0.00 0.00 0.00 40 1009.9
20260506071803 23 203 3.2 6.4 0.00 0.00 0.00 40 1010.0
20260506071115 23 234 1.6 6.4 0.00 0.00 0.00 41 1009.9
20260506070218 22 249 3.2 6.4 0.00 0.00 0.00 42 1009.9
20260506062014 20 252 3.2 6.4 0.00 0.00 0.00 50 1010.0